EA1HTW-13 Weather Reports


time (UTC)temp
F
wind
direction
speed
knots
gust
knots
rain 1hr
in
rain 24hr
in
rain mn
in
humidity
%
barometer
mb
20260503202614 60 0 0.0 0.9 0.00 0.94 0.94 69 1007.8
20260503201715 60 0 0.0 0.0 0.00 0.94 0.94 69 1007.8
20260503200815 60 0 0.0 0.9 0.00 0.94 0.94 69 1007.6
20260503195914 60 0 0.0 0.9 0.00 0.94 0.94 69 1007.5
20260503195015 60 0 0.0 0.9 0.00 0.96 0.94 69 1007.5
20260503194115 60 0 0.0 0.9 0.00 0.96 0.94 69 1007.3
20260503193215 60 45 0.9 0.9 0.00 0.98 0.94 68 1007.2
20260503192315 61 45 0.0 0.9 0.00 1.28 0.94 67 1007.3
20260503191415 61 22 0.0 0.9 0.00 1.29 0.94 67 1007.0
20260503190513 61 0 0.0 0.9 0.00 1.29 0.94 66 1007.1
20260503185614 61 1 0.9 1.7 0.00 1.29 0.94 64 1007.2
20260503184714 62 0 0.0 0.9 0.00 1.29 0.94 64 1007.1
20260503183814 62 0 0.9 1.7 0.00 1.29 0.94 63 1006.9
20260503182914 63 0 0.0 0.9 0.00 1.29 0.94 63 1007.0
20260503182014 63 0 0.9 1.7 0.00 1.29 0.94 62 1006.9
20260503181115 62 0 0.9 2.6 0.00 1.29 0.94 63 1007.0
20260503180214 63 0 1.7 2.6 0.00 1.29 0.94 62 1007.0
20260503175314 63 0 0.9 2.6 0.00 1.29 0.94 63 1007.0
20260503174415 63 0 0.9 1.7 0.00 1.29 0.94 62 1007.2
20260503173515 64 0 0.9 1.7 0.00 1.29 0.94 60 1007.0
20260503172615 64 0 1.7 2.6 0.00 1.29 0.94 58 1007.0
20260503171714 65 0 0.9 0.9 0.00 1.29 0.94 56 1007.0
20260503170813 65 0 1.7 1.7 0.00 1.29 0.94 55 1007.0
20260503150214 73 45 0.9 2.6 0.00 1.29 0.94 43 1006.7
20260503131414 66 45 1.7 2.6 0.00 1.29 0.94 60 1006.9
20260503130515 65 45 0.9 2.6 0.00 1.29 0.94 61 1006.9
20260503120216 64 45 0.0 0.9 0.00 1.29 0.94 68 1007.0
20260503110813 62 90 0.9 0.9 0.00 1.29 0.94 75 1007.1
20260503090215 59 90 0.0 0.0 0.04 1.16 0.81 85 1007.1
20260503080815 57 90 0.0 0.0 0.24 1.13 0.79 87 1006.9
20260503072314 57 90 0.0 0.0 0.53 1.00 0.66 87 1006.7
20260503071414 57 90 0.0 0.0 0.50 0.94 0.60 87 1006.7
20260503070514 57 90 0.0 0.0 0.43 0.87 0.53 87 1006.5
20260503060215 58 90 0.0 0.0 0.00 0.45 0.11 85 1006.0
20260503054415 58 90 0.0 0.9 0.00 0.45 0.11 85 1006.0
20260503053514 58 90 0.0 0.0 0.00 0.45 0.11 85 1006.0
20260503052614 58 90 0.0 0.0 0.00 0.45 0.11 85 1006.1
20260503051715 58 90 0.0 0.0 0.00 0.45 0.11 85 1005.9
20260503050815 58 90 0.0 0.0 0.00 0.45 0.11 85 1006.0
20260503045915 58 90 0.0 0.0 0.00 0.45 0.11 85 1006.1
20260503045014 58 90 0.0 0.0 0.00 0.45 0.11 85 1005.9
20260503044115 58 90 0.0 0.0 0.00 0.45 0.11 84 1006.2
20260503043215 58 90 0.0 0.0 0.00 0.45 0.11 84 1006.0
20260503042315 58 90 0.0 0.0 0.00 0.45 0.11 84 1006.1
20260503041414 58 90 0.0 0.0 0.00 0.45 0.11 84 1005.9
20260503040515 58 90 0.0 0.0 0.00 0.45 0.11 84 1006.1
20260503035615 58 90 0.0 0.0 0.00 0.45 0.11 84 1006.2
20260503034714 58 90 0.0 0.0 0.00 0.45 0.11 84 1006.2
20260503033815 58 90 0.0 0.0 0.00 0.45 0.11 85 1006.3
20260503032914 58 90 0.0 0.0 0.00 0.45 0.11 85 1006.6
20260503032014 58 90 0.0 0.0 0.00 0.45 0.11 85 1006.5
20260503031116 58 90 0.0 0.0 0.00 0.45 0.11 85 1006.4
20260503030215 58 90 0.0 0.0 0.00 0.45 0.11 85 1006.5
20260503025314 58 90 0.0 0.0 0.00 0.45 0.11 85 1006.5
20260503024414 59 90 0.0 0.0 0.00 0.45 0.11 85 1006.6
20260503023515 59 90 0.0 0.0 0.00 0.45 0.11 85 1006.7
20260503022615 59 90 0.0 0.0 0.00 0.45 0.11 85 1006.7
20260503021715 59 90 0.0 0.0 0.00 0.45 0.11 85 1006.7
20260503020814 59 90 0.0 0.0 0.00 0.45 0.11 85 1006.8
20260503015914 59 90 0.0 0.0 0.00 0.45 0.11 84 1006.6
20260503015014 59 90 0.0 0.0 0.00 0.45 0.11 84 1006.7
20260503014114 59 90 0.0 0.0 0.00 0.45 0.11 84 1007.0
20260503013213 59 90 0.0 0.0 0.00 0.45 0.11 84 1007.0
20260503012314 59 90 0.0 0.0 0.00 0.45 0.11 84 1007.2
20260503011415 59 90 0.0 0.0 0.00 0.45 0.11 84 1007.2
20260503010515 59 90 0.0 0.0 0.00 0.45 0.11 84 1007.3
20260503005614 59 90 0.0 0.0 0.00 0.45 0.11 84 1007.3
20260503004714 59 90 0.0 0.0 0.00 0.45 0.11 84 1007.5
20260503003814 59 90 0.0 0.0 0.00 0.45 0.11 84 1007.6
20260503002914 59 90 0.0 0.0 0.00 0.45 0.11 84 1007.7
20260503002015 59 90 0.0 0.0 0.00 0.45 0.11 84 1007.6
20260503001114 59 90 0.0 0.0 0.00 0.45 0.11 84 1007.7
20260503000215 59 90 0.0 0.0 0.01 0.45 0.11 84 1007.9
20260502235315 59 90 0.0 0.0 0.01 0.45 0.11 83 1007.8
20260502234415 59 90 0.0 0.0 0.01 0.45 0.11 83 1008.1
20260502233514 59 90 0.0 0.0 0.02 0.45 0.11 83 1007.8
20260502232614 60 90 0.0 0.0 0.08 0.45 0.11 83 1007.9
20260502231713 60 90 0.0 0.0 0.11 0.45 0.11 83 1008.1
20260502230815 60 90 0.0 0.0 0.11 0.45 0.11 83 1008.0
20260502225915 60 90 0.0 0.0 0.00 0.44 0.09 83 1007.9
20260502225014 60 90 0.0 0.0 0.00 0.44 0.09 82 1008.1
20260502224114 60 90 0.0 0.0 0.00 0.44 0.09 82 1008.1
20260502223214 60 90 0.0 0.0 0.00 0.40 0.06 81 1008.0
20260502222313 60 90 0.0 0.0 0.00 0.37 0.02 82 1008.1
20260502221415 60 90 0.0 0.0 0.00 0.34 0.00 82 1008.2
20260502220514 60 90 0.0 0.0 0.00 0.34 0.00 82 1008.3
20260502215614 60 90 0.0 0.0 0.00 0.34 0.34 82 1008.3
20260502214715 60 90 0.0 0.0 0.00 0.34 0.34 83 1008.3
20260502213815 60 90 0.0 0.9 0.00 0.34 0.34 83 1008.5
20260502212914 60 90 0.0 0.0 0.00 0.34 0.34 83 1008.5
20260502212015 60 90 0.0 0.9 0.00 0.34 0.34 84 1008.3
20260502211114 60 90 0.0 0.0 0.00 0.34 0.34 84 1008.3
20260502210215 60 90 0.0 0.0 0.00 0.34 0.34 84 1008.2
20260502205315 60 90 0.0 0.0 0.01 0.34 0.34 84 1008.3
20260502204414 60 90 0.0 0.0 0.01 0.34 0.34 84 1008.2
20260502203514 60 90 0.0 0.0 0.02 0.34 0.34 84 1008.0